| time (UTC) | temp F | wind direction | speed MPH | gust MPH | rain 1hr in | rain 24hr in | rain mn in | humidity % | barometer mb |
| 20260510084602 | 40 | 12 | 0.0 | 2.0 | 0.00 | 0.00 | 0.00 | 54 | 1018.9 |
| 20260510083059 | 41 | 12 | 1.0 | 3.0 | 0.00 | 0.00 | 0.00 | 53 | 1018.7 |
| 20260510081553 | 42 | 11 | 1.0 | 3.0 | 0.00 | 0.00 | 0.00 | 52 | 1018.5 |
| 20260510074552 | 43 | 13 | 2.0 | 5.0 | 0.00 | 0.00 | 0.00 | 51 | 1018.2 |
| 20260510073103 | 43 | 344 | 2.0 | 4.0 | 0.00 | 0.00 | 0.00 | 50 | 1018.0 |
| 20260510071541 | 44 | 350 | 2.0 | 8.0 | 0.00 | 0.00 | 0.00 | 49 | 1017.9 |
| 20260510070039 | 45 | 344 | 3.0 | 8.0 | 0.00 | 0.00 | 0.00 | 47 | 1017.8 |
| 20260510064549 | 45 | 329 | 2.0 | 8.0 | 0.00 | 0.00 | 0.00 | 47 | 1017.6 |
| 20260510063035 | 45 | 327 | 2.0 | 9.0 | 0.00 | 0.00 | 0.00 | 46 | 1017.6 |
| 20260510061534 | 45 | 311 | 3.0 | 8.0 | 0.00 | 0.00 | 0.00 | 46 | 1017.5 |
| 20260510060030 | 45 | 317 | 2.0 | 6.0 | 0.00 | 0.00 | 0.00 | 46 | 1017.3 |
| 20260510054528 | 45 | 308 | 4.0 | 9.0 | 0.00 | 0.00 | 0.00 | 45 | 1017.1 |
| 20260510053038 | 45 | 344 | 3.0 | 6.0 | 0.00 | 0.00 | 0.00 | 45 | 1016.9 |
| 20260510051530 | 45 | 336 | 3.0 | 5.0 | 0.00 | 0.00 | 0.00 | 45 | 1016.8 |
| 20260510050018 | 45 | 327 | 3.0 | 6.0 | 0.00 | 0.00 | 0.00 | 45 | 1016.6 |
| 20260510044518 | 45 | 323 | 3.0 | 8.0 | 0.00 | 0.00 | 0.00 | 44 | 1016.6 |
| 20260510043016 | 44 | 323 | 2.0 | 4.0 | 0.00 | 0.00 | 0.00 | 45 | 1016.4 |
| 20260510041517 | 45 | 342 | 1.0 | 3.0 | 0.00 | 0.00 | 0.00 | 44 | 1016.2 |
| 20260510040013 | 46 | 342 | 1.0 | 4.0 | 0.00 | 0.00 | 0.00 | 43 | 1015.9 |
| 20260510034511 | 47 | 331 | 1.0 | 5.0 | 0.00 | 0.00 | 0.00 | 42 | 1015.7 |
| 20260510033010 | 47 | 332 | 1.0 | 4.0 | 0.00 | 0.00 | 0.00 | 41 | 1015.6 |
| 20260510031510 | 48 | 347 | 1.0 | 3.0 | 0.00 | 0.00 | 0.00 | 40 | 1015.5 |
| 20260510030006 | 49 | 342 | 1.0 | 4.0 | 0.00 | 0.00 | 0.00 | 40 | 1015.2 |
| 20260510024505 | 49 | 360 | 0.0 | 3.0 | 0.00 | 0.00 | 0.00 | 38 | 1015.1 |
| 20260510023002 | 50 | 5 | 1.0 | 4.0 | 0.00 | 0.00 | 0.00 | 38 | 1014.7 |
| 20260510021606 | 51 | 350 | 1.0 | 6.0 | 0.00 | 0.00 | 0.00 | 36 | 1014.4 |
| 20260510020057 | 52 | 19 | 3.0 | 8.0 | 0.00 | 0.00 | 0.00 | 35 | 1014.0 |
| 20260510014600 | 53 | 336 | 3.0 | 8.0 | 0.00 | 0.00 | 0.00 | 34 | 1013.5 |
| 20260510013103 | 54 | 19 | 4.0 | 10.0 | 0.00 | 0.00 | 0.00 | 32 | 1013.3 |
| 20260510011548 | 55 | 332 | 4.0 | 10.0 | 0.00 | 0.00 | 0.00 | 31 | 1012.9 |
| 20260510010048 | 57 | 22 | 6.0 | 15.0 | 0.00 | 0.00 | 0.00 | 30 | 1012.7 |
| 20260510004544 | 58 | 336 | 8.0 | 13.0 | 0.00 | 0.00 | 0.00 | 29 | 1012.4 |
| 20260510003053 | 59 | 313 | 10.0 | 17.0 | 0.00 | 0.00 | 0.00 | 28 | 1012.2 |
| 20260510001538 | 59 | 300 | 9.0 | 20.0 | 0.00 | 0.00 | 0.00 | 28 | 1011.9 |
| 20260510000037 | 60 | 338 | 9.0 | 19.0 | 0.00 | 0.00 | 0.00 | 27 | 1011.8 |
| 20260509234538 | 61 | 327 | 8.0 | 14.0 | 0.00 | 0.00 | 0.00 | 28 | 1011.5 |
| 20260509233036 | 61 | 338 | 8.0 | 18.0 | 0.00 | 0.00 | 0.00 | 27 | 1011.4 |
| 20260509231534 | 61 | 360 | 10.0 | 18.0 | 0.00 | 0.00 | 0.00 | 27 | 1011.2 |
| 20260509230030 | 61 | 329 | 10.0 | 20.0 | 0.00 | 0.00 | 0.00 | 29 | 1010.9 |
| 20260509224528 | 62 | 11 | 9.0 | 25.0 | 0.00 | 0.00 | 0.00 | 27 | 1010.7 |
| 20260509223025 | 62 | 333 | 13.0 | 23.0 | 0.00 | 0.00 | 0.00 | 28 | 1010.4 |
| 20260509221627 | 62 | 5 | 8.0 | 20.0 | 0.00 | 0.00 | 0.00 | 27 | 1010.3 |
| 20260509220027 | 62 | 360 | 7.0 | 19.0 | 0.00 | 0.00 | 0.00 | 29 | 1010.1 |
| 20260509214520 | 63 | 308 | 10.0 | 19.0 | 0.00 | 0.00 | 0.00 | 29 | 1009.8 |
| 20260509213019 | 63 | 346 | 11.0 | 24.0 | 0.00 | 0.00 | 0.00 | 29 | 1009.7 |
| 20260509211519 | 63 | 28 | 11.0 | 22.0 | 0.00 | 0.00 | 0.00 | 29 | 1009.6 |
| 20260509210016 | 63 | 302 | 14.0 | 21.0 | 0.00 | 0.00 | 0.00 | 30 | 1009.3 |
| 20260509204515 | 62 | 300 | 15.0 | 25.0 | 0.00 | 0.00 | 0.00 | 31 | 1009.2 |
| 20260509203023 | 63 | 10 | 14.0 | 25.0 | 0.00 | 0.00 | 0.00 | 31 | 1009.2 |
| 20260509201513 | 63 | 342 | 13.0 | 24.0 | 0.00 | 0.00 | 0.00 | 31 | 1009.1 |
| 20260509200011 | 64 | 319 | 11.0 | 21.0 | 0.00 | 0.00 | 0.00 | 34 | 1009.1 |
| 20260509194509 | 64 | 325 | 12.0 | 20.0 | 0.00 | 0.00 | 0.00 | 36 | 1008.8 |
| 20260509193006 | 63 | 292 | 14.0 | 20.0 | 0.00 | 0.00 | 0.00 | 37 | 1008.8 |
| 20260509191504 | 63 | 355 | 12.0 | 23.0 | 0.00 | 0.00 | 0.00 | 34 | 1008.7 |
| 20260509190004 | 62 | 327 | 9.0 | 21.0 | 0.00 | 0.00 | 0.00 | 35 | 1008.4 |
| 20260509184504 | 62 | 306 | 14.0 | 26.0 | 0.00 | 0.00 | 0.00 | 36 | 1008.3 |
| 20260509183109 | 62 | 314 | 10.0 | 23.0 | 0.00 | 0.00 | 0.00 | 41 | 1008.2 |
| 20260509183002 | 62 | 311 | 13.0 | 23.0 | 0.00 | 0.00 | 0.00 | 42 | 1008.1 |
| 20260509181559 | 62 | 344 | 13.0 | 23.0 | 0.00 | 0.00 | 0.00 | 41 | 1008.2 |
| 20260509180101 | 61 | 315 | 11.0 | 21.0 | 0.00 | 0.00 | 0.00 | 42 | 1008.1 |
| 20260509174557 | 61 | 332 | 11.0 | 22.0 | 0.00 | 0.00 | 0.00 | 45 | 1008.0 |
| 20260509173059 | 61 | 342 | 12.0 | 22.0 | 0.00 | 0.00 | 0.00 | 46 | 1007.8 |
| 20260509171555 | 61 | 32 | 11.0 | 25.0 | 0.00 | 0.00 | 0.00 | 45 | 1007.7 |
| 20260509170051 | 61 | 360 | 12.0 | 24.0 | 0.00 | 0.00 | 0.00 | 44 | 1007.7 |
| 20260509164547 | 60 | 298 | 11.0 | 22.0 | 0.00 | 0.00 | 0.00 | 48 | 1007.5 |
| 20260509163050 | 60 | 342 | 11.0 | 22.0 | 0.00 | 0.00 | 0.00 | 50 | 1007.3 |
| 20260509161546 | 60 | 317 | 10.0 | 19.0 | 0.00 | 0.00 | 0.00 | 53 | 1007.2 |
| 20260509160042 | 61 | 312 | 12.0 | 20.0 | 0.00 | 0.00 | 0.00 | 54 | 1007.2 |
| 20260509154539 | 60 | 326 | 14.0 | 23.0 | 0.00 | 0.00 | 0.00 | 54 | 1007.1 |
| 20260509153047 | 59 | 297 | 16.0 | 24.0 | 0.00 | 0.00 | 0.00 | 56 | 1006.9 |
| 20260509151536 | 59 | 315 | 13.0 | 22.0 | 0.00 | 0.00 | 0.00 | 57 | 1006.7 |
| 20260509150039 | 58 | 290 | 11.0 | 20.0 | 0.00 | 0.00 | 0.00 | 57 | 1006.6 |
| 20260509144528 | 58 | 288 | 14.0 | 22.0 | 0.00 | 0.00 | 0.00 | 57 | 1006.4 |
| 20260509143028 | 58 | 332 | 9.0 | 20.0 | 0.00 | 0.00 | 0.00 | 59 | 1006.3 |
| 20260509141523 | 57 | 285 | 11.0 | 17.0 | 0.00 | 0.00 | 0.00 | 54 | 1006.2 |
| 20260509140033 | 56 | 315 | 4.0 | 10.0 | 0.00 | 0.00 | 0.00 | 51 | 1006.0 |
| 20260509134523 | 54 | 291 | 7.0 | 11.0 | 0.00 | 0.00 | 0.00 | 52 | 1006.3 |
| 20260509133022 | 53 | 330 | 5.0 | 13.0 | 0.00 | 0.00 | 0.00 | 52 | 1006.3 |
| 20260509131524 | 52 | 294 | 9.0 | 13.0 | 0.00 | 0.00 | 0.00 | 52 | 1006.1 |
| 20260509130017 | 51 | 288 | 9.0 | 13.0 | 0.00 | 0.00 | 0.00 | 55 | 1006.3 |
| 20260509124515 | 50 | 263 | 10.0 | 15.0 | 0.00 | 0.00 | 0.00 | 56 | 1006.3 |
| 20260509123013 | 49 | 330 | 4.0 | 10.0 | 0.00 | 0.00 | 0.00 | 56 | 1005.9 |
| 20260509121513 | 48 | 290 | 5.0 | 9.0 | 0.00 | 0.00 | 0.00 | 59 | 1006.0 |
| 20260509120012 | 48 | 298 | 7.0 | 15.0 | 0.00 | 0.00 | 0.00 | 57 | 1005.8 |
| 20260509114510 | 43 | 305 | 3.0 | 5.0 | 0.00 | 0.00 | 0.00 | 65 | 1005.1 |
| 20260509113007 | 41 | 25 | 0.0 | 1.0 | 0.00 | 0.00 | 0.00 | 69 | 1004.1 |
| 20260509111503 | 40 | 300 | 0.0 | 0.0 | 0.00 | 0.00 | 0.00 | 66 | 1004.0 |
| 20260509110002 | 40 | 300 | 0.0 | 1.0 | 0.00 | 0.00 | 0.00 | 65 | 1003.9 |
| 20260509104505 | 40 | 301 | 0.0 | 0.0 | 0.00 | 0.00 | 0.00 | 66 | 1004.0 |
| 20260509103001 | 40 | 301 | 0.0 | 1.0 | 0.00 | 0.00 | 0.00 | 66 | 1004.2 |
| 20260509101603 | 40 | 301 | 0.0 | 1.0 | 0.00 | 0.00 | 0.00 | 65 | 1004.2 |
| 20260509100101 | 39 | 301 | 0.0 | 1.0 | 0.00 | 0.00 | 0.00 | 66 | 1004.2 |
| 20260509094557 | 40 | 301 | 0.0 | 1.0 | 0.00 | 0.00 | 0.00 | 65 | 1004.2 |
| 20260509093057 | 38 | 300 | 1.0 | 3.0 | 0.00 | 0.00 | 0.00 | 69 | 1004.1 |
| 20260509091555 | 39 | 300 | 0.0 | 2.0 | 0.00 | 0.00 | 0.00 | 65 | 1004.0 |
| 20260509090058 | 38 | 300 | 0.0 | 3.0 | 0.00 | 0.00 | 0.00 | 68 | 1004.2 |